Fryeburg, ME

1:00 AM EST on December 11, 2017 (GMT -0500)
Eastern Slopes Regional

Weather History for KIZG - November, 2013

Change the Weather History Date:

Monday, November 4, 2013

  Actual Average Record
Temperature  
Mean Temperature 30 °F -  
Max Temperature 42 °F 48 °F 64 °F (2008)
Min Temperature 17 °F 28 °F 14 °F (2002)
Degree Days  
Heating Degree Days 36    
Moisture  
Dew Point 14 °F    
Average Humidity 59    
Maximum Humidity 92    
Minimum Humidity 31    
Precipitation  
Precipitation 0.00 in - - ()
Sea Level Pressure  
Sea Level Pressure 30.64 in    
Wind  
Wind Speed 4 mph (NNW)    
Max Wind Speed 8 mph    
Max Gust Speed -    
Visibility 10 miles    
Events      
Averages and records for this station are not official NWS values.
T = Trace of Precipitation, MM = Missing Value Source: NWS Daily Summary

Daily Weather History Graph

Daily Weather History Graph

Search for Another Location

Airport or City:

Trip Planner

Search our weather history database for the weather conditions in past years. The results will help you decide how hot, cold, wet, or windy it might be!

Date:

Astronomy

Nov. 04, 2013 Rise Set
Actual Time 6:24 AM EST 4:29 PM EST
Civil Twilight 5:54 AM EST 4:59 PM EST
Nautical Twilight 5:19 AM EST 5:34 PM EST
Astronomical Twilight 4:46 AM EST 6:07 PM EST
Moon 7:33 AM EST (11/4) 5:29 PM EST (11/4)
Length of Visible Light 11h 05m
Length of Day
10h 05m
New Moon, 2% of the Moon is Illuminated
Nov 4
New Moon
Nov 10
First Quarter
Nov 17
Full
Nov 25
Last Quarter
Dec 2
New

Hourly Weather History & Observations

Time (EST) Temp. Windchill Dew Point Humidity Pressure Visibility Wind Dir Wind Speed Gust Speed Precip Events Conditions
12:54 AM 28.9 °F 21.1 °F 12.0 °F 49% 30.47 in 10.0 mi NNW 8.1 mph - N/A   Clear
1:54 AM 28.9 °F 23.9 °F 10.9 °F 47% 30.50 in 10.0 mi NNW 4.6 mph - N/A   Clear
2:54 AM 28.0 °F 22.8 °F 12.0 °F 51% 30.52 in 10.0 mi North 4.6 mph - N/A   Clear
3:54 AM 21.9 °F 17.2 °F 15.1 °F 75% 30.56 in 10.0 mi WNW 3.5 mph - N/A   Clear
4:54 AM 19.0 °F 13.9 °F 14.0 °F 81% 30.57 in 10.0 mi NW 3.5 mph - N/A   Clear
5:54 AM 17.1 °F - 12.9 °F 84% 30.60 in 10.0 mi Calm Calm - N/A   Clear
6:54 AM 23.0 °F 17.0 °F 14.0 °F 68% 30.64 in 10.0 mi NNW 4.6 mph - N/A   Clear
7:54 AM 30.9 °F 25.2 °F 15.1 °F 52% 30.65 in 10.0 mi NNW 5.8 mph - N/A   Clear
8:54 AM 34.0 °F 28.8 °F 14.0 °F 44% 30.66 in 10.0 mi North 5.8 mph - N/A   Clear
9:54 AM 35.1 °F 28.6 °F 12.9 °F 40% 30.66 in 10.0 mi NE 8.1 mph - N/A   Clear
10:54 AM 37.0 °F 33.3 °F 14.0 °F 39% 30.65 in 10.0 mi NE 4.6 mph - N/A   Clear
11:54 AM 39.0 °F 35.7 °F 12.0 °F 33% 30.65 in 10.0 mi Variable 4.6 mph - N/A   Clear
12:54 PM 41.0 °F 35.8 °F 14.0 °F 33% 30.63 in 10.0 mi NNW 8.1 mph - N/A   Clear
1:54 PM 41.0 °F 39.0 °F 12.9 °F 32% 30.63 in 10.0 mi Variable 3.5 mph - N/A   Clear
2:54 PM 42.1 °F - 12.9 °F 31% 30.63 in 10.0 mi Calm Calm - N/A   Clear
3:54 PM 39.9 °F - 10.9 °F 31% 30.65 in 10.0 mi Calm Calm - N/A   Clear
4:54 PM 30.0 °F - 16.0 °F 56% 30.67 in 10.0 mi Calm Calm - N/A   Clear
5:54 PM 26.1 °F - 17.1 °F 69% 30.68 in 10.0 mi Calm Calm - N/A   Clear
6:54 PM 25.0 °F - 17.1 °F 72% 30.70 in 10.0 mi Calm Calm - N/A   Clear
7:54 PM 24.1 °F - 17.1 °F 75% 30.69 in 10.0 mi Calm Calm - N/A   Clear
8:54 PM 21.9 °F - 16.0 °F 78% 30.71 in 10.0 mi Calm Calm - N/A   Clear
9:54 PM 19.9 °F - 18.0 °F 92% 30.72 in 10.0 mi Calm Calm - N/A   Clear
10:54 PM 19.0 °F - 16.0 °F 88% 30.72 in 10.0 mi Calm Calm - N/A   Clear
11:54 PM 18.0 °F - 15.1 °F 88% 30.74 in 10.0 mi Calm Calm - N/A   Clear